Location: Newsoms
(36.6240°N, 77.1250°W)
Time: 17:47:30
(UTC-04:00)

Daily predictions for brighter satellites

Satellite Brightness Start Highest point End
(mag) Time Altitude Azimuth Time Altitude Azimuth Time Altitude Azimuth
Cosmos 1455 2.8 20:12:17 10° SSE 20:15:45 34° E 20:19:12 10° NNE
Cosmos 1697 Rocket 3.1 20:14:36 10° SSW 20:20:14 70° WNW 20:25:53 10° NNE
SJ-6B 3.6 20:18:56 10° S 20:22:45 57° W 20:26:42 10° NNW
ATLAS CENTAUR R/B 1.7 20:23:36 10° NW 20:26:07 89° ENE 20:32:14 10° SE
Cosmos 1400 Rocket 2.7 20:24:27 10° N 20:28:19 65° E 20:32:14 10° SSE
OTV 4 0.9 20:26:53 10° W 20:29:40 47° SSW 20:32:06 12° SE
Cosmos 2297 Rocket 3.3 20:25:18 10° NW 20:30:40 46° WSW 20:36:02 10° S
ALOS 3.0 20:26:28 10° S 20:31:01 56° W 20:35:38 10° NNW
Nadezhda 4 Rocket 4.0 20:24:53 10° N 20:31:09 72° E 20:37:26 10° SSE
DELTA 2 R/B (1) 3.6 20:27:11 10° WNW 20:32:49 89° SSW 20:37:59 12° ESE
FENGYUN 3A 4.2 20:27:34 10° S 20:32:52 63° W 20:38:11 10° NNW
Cosmos 1892 2.6 20:31:12 10° N 20:34:59 73° E 20:38:46 10° SSE
Cosmos 1634 Rocket 4.3 20:29:26 10° SSE 20:35:22 47° E 20:41:22 10° NNE
Intercosmos 25 Rocket 4.4 20:35:34 13° SE 20:37:15 18° E 20:39:41 10° NE
Cosmos 2263 Rocket 4.0 20:36:25 10° NNE 20:39:33 15° NE 20:42:39 10° E
Cosmos 1092 Rocket 4.1 20:33:35 10° N 20:39:50 59° E 20:46:04 10° SSE
H-2A R/B 3.2 20:36:02 10° S 20:39:56 66° W 20:43:48 10° NNW
Meteor 2-3 Rocket 3.9 20:34:37 10° N 20:40:20 82° W 20:46:05 10° S
Cosmos 1315 Rocket 3.2 20:36:43 10° N 20:40:40 46° ENE 20:44:32 10° SSE
Cosmos 2322 Rocket 2.8 20:36:00 10° SSE 20:40:57 33° ESE 20:45:55 10° NE
USA 186 1.5 20:39:39 12° SSE 20:41:58 50° ENE 20:44:42 10° N
Cosmos 1707 Rocket 3.5 20:41:25 10° S 20:45:51 73° E 20:50:16 10° N
Spot 2 Rocket 3.6 20:42:01 10° S 20:47:08 81° WSW 20:52:15 10° NNW
Abrixas rocket 3.6 20:44:09 10° W 20:47:15 38° NNW 20:50:21 10° NE
Cosmos 2360 Rocket 3.7 20:52:40 15° E 20:52:40 15° E 20:55:23 10° ENE
Cosmos 1980 Rocket 2.8 20:47:07 10° SSW 20:52:43 63° WNW 20:58:24 10° NNE
Cosmos 1733 Rocket 4.3 20:52:12 10° NNE 20:55:49 24° ENE 20:57:20 20° ESE
CZ-2D R/B 3.8 20:54:27 10° S 20:58:17 59° W 21:02:09 10° NNW
Resurs 1-3 4.2 20:55:08 10° S 20:59:26 58° W 21:03:47 10° NNW
Helios 1B rocket 2.3 20:55:51 10° NNE 20:59:58 74° ESE 21:04:02 10° S
SL-8 R/B 4.1 20:55:54 10° WNW 21:00:37 56° SW 21:03:56 19° SSE
Lacrosse 4 Rocket 2.8 20:58:03 10° N 21:01:39 25° ENE 21:03:17 20° E
Meteor 1-29 2.9 20:58:27 10° NNE 21:01:54 59° E 21:05:18 10° S
Cosmos 1869 Rocket 4.0 21:01:38 10° NNW 21:06:05 66° W 21:10:30 10° S
Envisat 3.0 21:02:47 15° SSE 21:06:59 65° ENE 21:12:01 10° N
Cosmos 1825 2.7 21:03:35 10° N 21:07:10 39° E 21:08:25 30° ESE
Cosmos 1862 4.3 21:04:08 10° NNE 21:07:37 28° ENE 21:08:23 26° E
SL-16 R/B 2.2 21:02:13 10° S 21:07:45 58° ESE 21:13:18 10° NNE
Cosmos 1939 Rocket 3.0 21:09:41 25° SE 21:11:51 57° ENE 21:15:48 10° N
Cosmos 2242 Rocket 3.5 21:07:41 10° S 21:12:11 67° E 21:16:39 10° NNE
Cosmos 1627 Rocket 4.4 21:06:57 10° N 21:13:10 70° E 21:18:23 15° SSE
Milstar 3 3.3 21:06:18 10° WSW 21:13:50 44° S 21:17:22 24° SE
SJ-11-01 4.2 21:10:59 21° SSE 21:14:04 66° ENE 21:18:42 10° N
SPOT 5 4.4 21:15:36 18° ENE 21:16:16 19° ENE 21:19:34 10° NNE
CZ-4B DEB 2.5 21:15:52 40° SSE 21:16:50 83° ENE 21:19:53 10° N
Cosmos 2279 Rocket 4.0 21:11:43 10° S 21:17:50 60° E 21:23:56 10° NNE
Cosmos 2195 Rocket 4.4 21:12:29 10° N 21:18:37 80° E 21:23:58 14° S
ATLAS 5 CENTAUR R/B 3.9 21:17:02 10° N 21:21:37 22° NE 21:24:21 17° ENE
USA 234 3.2 21:20:01 26° SE 21:24:04 80° NE 21:30:39 10° NW
SEDSat Delta rocket 4.1 21:21:25 10° SW 21:26:34 41° SSE 21:28:23 33° SE
OAO 3 Rocket 3.2 21:22:29 10° WSW 21:27:22 71° S 21:29:18 37° E
Resurs 01 Rocket 3.9 21:24:37 10° SSW 21:28:11 24° W 21:31:46 10° NW
Helios 1A 3.7 21:26:48 15° S 21:30:10 51° W 21:34:19 10° NNW
ARGOS 4.2 21:30:20 26° E 21:31:13 27° ENE 21:35:40 10° N
Atlas Centaur 2 3.4 21:24:46 10° SW 21:31:27 39° SSE 21:34:14 30° ESE
Cosmos 2180 Rocket 4.4 21:32:09 14° S 21:37:42 72° E 21:44:02 10° N
Cosmos 1428 Rocket 4.4 21:32:18 10° N 21:38:23 68° E 21:41:11 33° SSE
FALCON 9 R/B 2.3 21:37:08 10° WSW 21:38:04 21° WSW 21:38:04 21° WSW
ERS-1 Rocket 2.9 21:42:11 45° SE 21:43:38 70° ENE 21:48:39 10° N
Cosmos 1408 3.4 21:45:38 10° NNW 21:49:12 47° W 21:50:06 38° SW
ERBS 2.8 21:49:49 10° NW 21:52:42 59° NW 21:52:42 59° NW
Sich 1 Rocket 4.2 21:50:16 10° N 21:53:57 42° NE 21:53:57 42° NE
SeaSat 1 2.8 22:00:11 48° ENE 22:00:23 48° ENE 22:05:08 10° NNW
Cosmos 1992 Rocket 4.4 21:56:33 10° SSW 22:01:42 61° WNW 22:06:54 10° N
USA 229 DEB 3.7 22:04:46 51° SE 22:05:10 52° ESE 22:11:49 10° NE
USA 229 3.7 22:05:03 51° ESE 22:05:16 51° ESE 22:11:54 10° NE
H-2A R/B 4.3 22:07:13 15° NE 22:07:13 15° NE 22:08:29 10° NNE
MetOp-A 4.0 22:08:21 69° SSE 22:09:02 85° ENE 22:14:25 10° NNW
USA 245 4.3 22:08:35 61° ESE 22:09:15 66° ENE 22:14:38 10° N
Cosmos 1908 Rocket 4.0 22:07:38 10° N 22:11:04 53° NNE 22:11:04 53° NNE
COSMOS 2428 4.3 22:23:05 21° NE 22:23:05 21° NE 22:25:10 10° NE
YAOGAN 6 4.3 22:20:14 29° W 22:20:14 29° W 22:23:14 10° NW
Cosmos 1867 4.2 22:17:46 10° NNW 22:22:40 45° NE 22:22:40 45° NE
H-2A R/B 2.7 22:24:03 42° NE 22:24:03 42° NE 22:27:50 10° N
Cosmos 2263 Rocket 2.1 22:18:30 10° NNW 22:24:03 74° WSW 22:24:22 72° SW
Cosmos 2322 Rocket 4.0 22:20:03 10° WSW 22:24:56 30° WNW 22:29:51 10° N
Terra 3.6 22:26:53 22° NE 22:26:53 22° NE 22:29:13 10° NNE
Meteor 2-10 Rocket 4.3 22:30:49 35° SW 22:33:03 55° WNW 22:38:46 10° N
Cosmos 2360 Rocket 2.5 22:34:16 47° SW 22:35:43 65° WNW 22:41:22 10° NNE
Lacrosse 4 Rocket 3.3 22:36:37 10° NW 22:39:39 26° W 22:39:39 26° W
Cosmos 2322 3.9 22:40:41 66° W 22:41:07 69° WNW 22:46:50 10° NNE
Cosmos 968 Rocket 4.0 22:42:12 10° NNW 22:46:23 57° NW 22:46:23 57° NW
Cosmos 2266 Rocket 4.3 22:47:08 10° NNW 22:53:17 60° W 22:53:45 58° WSW
SPOT 5 4.0 22:54:50 39° WNW 22:54:50 39° WNW 22:58:35 10° NNW
CZ-4C R/B 4.4 22:52:48 10° N 22:58:12 22° NE 22:59:45 21° ENE
Cosmos 2333 Rocket 4.4 23:04:54 15° NE 23:04:54 15° NE 23:05:53 10° NE
ATLAS 5 CENTAUR R/B 2.8 23:00:44 10° NW 23:05:54 62° WNW 23:05:54 62° WNW
ARGOS 4.5 23:11:51 33° W 23:11:51 33° W 23:16:07 10° NNW
Cosmos 2278 Rocket 4.0 23:11:16 10° N 23:14:18 22° NNE 23:14:18 22° NNE
Atlas Centaur 2 4.0 23:13:01 10° WSW 23:16:54 31° WSW 23:16:54 31° WSW
Cosmos 1844 Rocket 3.9 23:22:23 10° NNW 23:25:44 38° NNW 23:25:44 38° NNW
Cosmos 2219 Rocket 3.9 23:45:20 26° NNE 23:45:20 26° NNE 23:47:45 10° NNE
